Location: Chena
(64.8152°N, 147.9227°W)
Time: 01:28:06
(UTC+00:00)

Vanguard 2 - Pass Details

Date: 10 March 2021
Orbit: 552 x 2938 km, 32.9° (Epoch: 10 April)

Event Time Altitude Azimuth Distance (km) Brightness Sun altitude
Rises 11:56:17 0° 198° (SSW) 5,151 - -25.7°
Reaches altitude 10° 12:03:55 10° 166° (SSE) 4,815 - -25.3°
Exits shadow 12:04:25 10° 164° (SSE) 4,829 11.2 -25.3°
Maximum altitude 12:06:40 11° 154° (SSE) 4,945 11.3 -25.1°
Drops below altitude 10° 12:09:37 10° 143° (SE) 5,206 11.6 -25.0°
Sets 12:19:37 0° 115° (ESE) 6,669 12.5 -24.3°
